When you browse on this site, cookies collect data to enhance your experience and personalize the content and advertising you see.
Visit our Privacy Policy to learn more. By continuing to use the site, you agree to this use of cookies and data.
  • In Schweiz
  • Länderverzeichnis
  • Für 7 Tage
  • Wassertemperatur
  • Satellitenkarten
  • Wetterkarte
  • Widgets
  • user-avatar
    Anmelden

    Stündliche Wetter Xuchang

    Heute, 18 Juli, Donnerstag

    Zeit Temperatur Niederschläge Wind Luftdruck Luftfeuchtigkeit
    00:00 +26°C° 0 mm 2 m/S 748 mmHg 74%
    01:00 +26°C° 0 mm 2 m/S 748 mmHg 72%
    02:00 +26°C° 0 mm 3 m/S 747 mmHg 73%
    03:00 +26°C° 0 mm 2 m/S 747 mmHg 73%
    04:00 +26°C° 0 mm 2 m/S 747 mmHg 72%
    05:00 +25°C° 0 mm 2 m/S 747 mmHg 72%
    06:00 +26°C° 0 mm 2 m/S 747 mmHg 72%
    07:00 +27°C° 0 mm 3 m/S 747 mmHg 72%
    08:00 +28°C° 0 mm 3 m/S 748 mmHg 71%
    09:00 +30°C° 0 mm 3 m/S 748 mmHg 65%
    10:00 +33°C° 0 mm 3 m/S 748 mmHg 58%
    11:00 +35°C° 0 mm 3 m/S 748 mmHg 52%
    12:00 +35°C° 0 mm 3 m/S 747 mmHg 49%
    13:00 +36°C° 0 mm 3 m/S 746 mmHg 45%
    14:00 +37°C° 0 mm 3 m/S 745 mmHg 42%
    15:00 +37°C° 0 mm 3 m/S 745 mmHg 40%
    16:00 +38°C° 0 mm 2 m/S 745 mmHg 38%
    17:00 +38°C° 0 mm 2 m/S 744 mmHg 37%
    18:00 +36°C° 0 mm 2 m/S 744 mmHg 42%
    19:00 +35°C° 0 mm 2 m/S 744 mmHg 47%
    20:00 +32°C° 0 mm 2 m/S 745 mmHg 52%
    21:00 +31°C° 0 mm 2 m/S 745 mmHg 57%
    22:00 +30°C° 0 mm 2 m/S 745 mmHg 63%
    23:00 +29°C° 0 mm 1 m/S 746 mmHg 69%

    Morgen, 19 Juli, Freitag

    Zeit Temperatur Niederschläge Wind Luftdruck Luftfeuchtigkeit
    00:00 +29°C° 0 mm 1 m/S 746 mmHg 72%
    01:00 +28°C° 0 mm 1 m/S 745 mmHg 76%
    02:00 +27°C° 0 mm 1 m/S 745 mmHg 79%
    03:00 +27°C° 0 mm 1 m/S 745 mmHg 83%
    04:00 +26°C° 0 mm 1 m/S 745 mmHg 86%
    05:00 +26°C° 0 mm 1 m/S 745 mmHg 90%
    06:00 +27°C° 0 mm 2 m/S 746 mmHg 84%
    07:00 +28°C° 0 mm 2 m/S 746 mmHg 78%
    08:00 +30°C° 0 mm 2 m/S 746 mmHg 72%
    09:00 +33°C° 0 mm 3 m/S 746 mmHg 62%
    10:00 +35°C° 0 mm 3 m/S 746 mmHg 53%
    11:00 +37°C° 0 mm 3 m/S 746 mmHg 43%
    12:00 +38°C° 0 mm 3 m/S 745 mmHg 38%
    13:00 +39°C° 0 mm 3 m/S 745 mmHg 34%
    14:00 +40°C° 0 mm 3 m/S 744 mmHg 30%
    15:00 +40°C° 0 mm 3 m/S 744 mmHg 29%
    16:00 +40°C° 0 mm 2 m/S 743 mmHg 28%
    17:00 +40°C° 0 mm 2 m/S 743 mmHg 27%
    18:00 +38°C° 0 mm 2 m/S 743 mmHg 33%
    19:00 +36°C° 0 mm 2 m/S 744 mmHg 40%
    20:00 +34°C° 0 mm 3 m/S 744 mmHg 46%
    21:00 +33°C° 0 mm 3 m/S 744 mmHg 51%
    22:00 +31°C° 0 mm 2 m/S 744 mmHg 57%
    23:00 +30°C° 0 mm 2 m/S 745 mmHg 62%

    übermorgen, 20 Juli, Samstag

    Zeit Temperatur Niederschläge Wind Luftdruck Luftfeuchtigkeit
    00:00 +29°C° 0 mm 2 m/S 744 mmHg 67%
    01:00 +29°C° 0 mm 2 m/S 744 mmHg 72%
    02:00 +28°C° 0 mm 2 m/S 744 mmHg 77%
    03:00 +28°C° 0 mm 2 m/S 744 mmHg 79%
    04:00 +28°C° 0 mm 2 m/S 744 mmHg 81%
    05:00 +27°C° 0 mm 2 m/S 744 mmHg 83%
    06:00 +29°C° 0 mm 2 m/S 744 mmHg 76%
    07:00 +30°C° 0 mm 2 m/S 745 mmHg 69%
    08:00 +32°C° 0 mm 2 m/S 745 mmHg 62%
    09:00 +35°C° 0 mm 2 m/S 745 mmHg 55%
    10:00 +37°C° 0 mm 2 m/S 745 mmHg 48%
    11:00 +38°C° 0 mm 3 m/S 745 mmHg 41%
    12:00 +39°C° 0 mm 2 m/S 744 mmHg 38%
    13:00 +40°C° 0 mm 2 m/S 744 mmHg 35%
    14:00 +41°C° 0 mm 2 m/S 743 mmHg 32%
    15:00 +41°C° 0 mm 2 m/S 743 mmHg 33%
    16:00 +42°C° 0 mm 3 m/S 742 mmHg 34%
    17:00 +40°C° 0 mm 3 m/S 742 mmHg 36%
    18:00 +39°C° 0 mm 3 m/S 742 mmHg 40%
    19:00 +37°C° 0 mm 2 m/S 743 mmHg 44%
    20:00 +36°C° 0 mm 2 m/S 743 mmHg 48%
    21:00 +35°C° 0 mm 2 m/S 743 mmHg 52%
    22:00 +34°C° 0 mm 2 m/S 743 mmHg 55%
    23:00 +32°C° 0 mm 2 m/S 744 mmHg 59%

    21 Juli, Sonntag

    Zeit Temperatur Niederschläge Wind Luftdruck Luftfeuchtigkeit
    00:00 +31°C° 0 mm 2 m/S 744 mmHg 63%
    01:00 +31°C° 0 mm 2 m/S 744 mmHg 67%
    02:00 +30°C° 0 mm 2 m/S 744 mmHg 70%
    03:00 +30°C° 0 mm 1 m/S 744 mmHg 74%
    04:00 +29°C° 0 mm 1 m/S 744 mmHg 77%
    05:00 +29°C° 0 mm 1 m/S 743 mmHg 80%
    06:00 +30°C° 0 mm 2 m/S 744 mmHg 75%
    07:00 +32°C° 0 mm 2 m/S 744 mmHg 71%
    08:00 +34°C° 0 mm 3 m/S 745 mmHg 66%
    09:00 +36°C° 0.3 mm 3 m/S 744 mmHg 59%
    10:00 +37°C° 0.3 mm 3 m/S 744 mmHg 52%
    11:00 +39°C° 0.3 mm 3 m/S 744 mmHg 44%
    12:00 +39°C° 0 mm 3 m/S 744 mmHg 44%
    13:00 +39°C° 0 mm 3 m/S 743 mmHg 43%
    14:00 +41°C° 0 mm 4 m/S 743 mmHg 42%
    15:00 +41°C° 0 mm 4 m/S 742 mmHg 42%
    16:00 +41°C° 0 mm 4 m/S 742 mmHg 42%
    17:00 +41°C° 0 mm 4 m/S 742 mmHg 41%
    18:00 +38°C° 0 mm 3 m/S 742 mmHg 45%
    19:00 +37°C° 0 mm 3 m/S 742 mmHg 49%
    20:00 +35°C° 0 mm 3 m/S 743 mmHg 53%
    21:00 +35°C° 0.2 mm 3 m/S 743 mmHg 58%
    22:00 +34°C° 0.2 mm 3 m/S 743 mmHg 62%
    23:00 +33°C° 0.2 mm 3 m/S 743 mmHg 67%

    22 Juli, Montag

    Zeit Temperatur Niederschläge Wind Luftdruck Luftfeuchtigkeit
    00:00 +31°C° 1.5 mm 2 m/S 743 mmHg 74%
    01:00 +30°C° 1.5 mm 2 m/S 743 mmHg 81%
    02:00 +29°C° 1.5 mm 2 m/S 743 mmHg 88%
    03:00 +29°C° 1.4 mm 2 m/S 743 mmHg 89%
    04:00 +28°C° 1.4 mm 2 m/S 743 mmHg 90%
    05:00 +28°C° 1.4 mm 2 m/S 742 mmHg 91%
    06:00 +28°C° 1.3 mm 3 m/S 743 mmHg 92%
    07:00 +28°C° 1.3 mm 3 m/S 743 mmHg 93%
    08:00 +28°C° 1.3 mm 3 m/S 743 mmHg 93%
    09:00 +28°C° 1 mm 3 m/S 743 mmHg 92%
    10:00 +29°C° 1 mm 3 m/S 743 mmHg 91%
    11:00 +29°C° 1 mm 3 m/S 743 mmHg 90%
    12:00 +30°C° 1.1 mm 2 m/S 742 mmHg 85%
    13:00 +31°C° 1.1 mm 2 m/S 742 mmHg 80%
    14:00 +32°C° 1.1 mm 2 m/S 742 mmHg 76%
    15:00 +31°C° 1.7 mm 2 m/S 741 mmHg 79%
    16:00 +31°C° 1.7 mm 2 m/S 741 mmHg 83%
    17:00 +30°C° 1.7 mm 2 m/S 741 mmHg 87%
    18:00 +30°C° 0.4 mm 1 m/S 741 mmHg 88%
    19:00 +29°C° 0.4 mm 1 m/S 741 mmHg 90%
    20:00 +29°C° 0.4 mm 1 m/S 741 mmHg 92%
    21:00 +29°C° 0.7 mm 1 m/S 742 mmHg 92%
    22:00 +29°C° 0.7 mm 1 m/S 742 mmHg 93%
    23:00 +28°C° 0.7 mm 1 m/S 742 mmHg 94%

    23 Juli, Dienstag

    Zeit Temperatur Niederschläge Wind Luftdruck Luftfeuchtigkeit
    00:00 +28°C° 1.5 mm 1 m/S 742 mmHg 94%
    01:00 +28°C° 1.5 mm 2 m/S 742 mmHg 95%
    02:00 +28°C° 1.5 mm 2 m/S 741 mmHg 96%
    03:00 +27°C° 0.2 mm 2 m/S 741 mmHg 95%
    04:00 +27°C° 0.2 mm 2 m/S 741 mmHg 95%
    05:00 +27°C° 0.2 mm 1 m/S 741 mmHg 95%
    06:00 +28°C° 0.1 mm 1 m/S 741 mmHg 92%
    07:00 +28°C° 0.1 mm 2 m/S 742 mmHg 90%
    08:00 +29°C° 0.1 mm 2 m/S 742 mmHg 87%
    09:00 +30°C° 0.1 mm 2 m/S 742 mmHg 83%
    10:00 +30°C° 0.1 mm 2 m/S 742 mmHg 79%
    11:00 +31°C° 0.1 mm 2 m/S 742 mmHg 75%
    12:00 +32°C° 0 mm 1 m/S 742 mmHg 71%
    13:00 +34°C° 0 mm 1 m/S 742 mmHg 67%
    14:00 +33°C° 0 mm 0 m/S 741 mmHg 62%
    15:00 +33°C° 0 mm 0 m/S 741 mmHg 61%
    16:00 +33°C° 0 mm 0 m/S 741 mmHg 60%
    17:00 +33°C° 0 mm 0 m/S 740 mmHg 59%
    18:00 +34°C° 0 mm 1 m/S 741 mmHg 64%
    19:00 +33°C° 0 mm 1 m/S 741 mmHg 68%
    20:00 +32°C° 0 mm 1 m/S 741 mmHg 73%
    21:00 +31°C° 0.3 mm 2 m/S 741 mmHg 79%
    22:00 +30°C° 0.3 mm 2 m/S 742 mmHg 84%
    23:00 +29°C° 0.3 mm 3 m/S 742 mmHg 90%
    Mehr zeigen